Location: Cactus School
(34.5700°N, 118.0931°W)
Time: 08:42:19
(UTC-07:00)

Vanguard 1 Rocket - Pass Details

Date: 22 April 2024
Orbit: 650 x 4220 km, 34.3° (Epoch: 22 May)

Event Time Altitude Azimuth Distance (km) Brightness Sun altitude
Rises 00:42:42 0° 279° (W) 4,413 11.0 -43.0°
Reaches altitude 10° 00:45:18 10° 272° (W) 3,770 10.5 -43.0°
Enters shadow 00:45:51 12° 270° (W) 3,650 10.4 -43.0°
